Flag for Poland Weather past 2 weeks in Słupsk, Poland

Now
33 °F

Passing clouds.


Feels Like: 26 °F
Forecast: 36 / 53 °F
Wind: 8 mph from South

Location: Leba

Current Time: Oct 25, 2014 at 8:06:40 AM

Latest Report: Oct 25, 2014 at 7:00 AM


Visibility: 13 mi

Pressure: 30.24 "Hg

Humidity: 76%

Dew point: 27 °F

Location of SłupskLocation

Historic Weather in Słupsk — Graph

°F

Słupsk temperature yesterday

Maximum temperature yesterday: 49 °F (at 3:00 PM)
Minimum temperature yesterday: 37 °F (at 11:00 PM)
Average temperature yesterday: 42 °F

Past Weeks' High & Low Weather Summary

 TemperatureHumidityPressure
High68 °F (Oct 19, 3:00 PM)98% (Oct 13, 5:00 AM)30.34 "Hg (Oct 13, 5:00 AM)
Low34 °F (Oct 25, 4:00 AM)63% (Oct 24, 3:00 PM)29.54 "Hg (Oct 22, 12:00 AM)
Average52 °F89%29.91 "Hg
* Reported Oct 10 6:00 AM — Oct 25 6:00 AM, Słupsk, Weather by CustomWeather, © 2014

Note: Actual official high and low records may vary slightly from our data, if they occured in-between our weather recording intervals... More about our weather records

Advertising

Słupsk weather history for previous 24 hours

 ConditionsComfort  
Time TempWeatherWind HumidityBarometerVisibility
6:00 AM
Oct 25
34 °FPassing clouds.8 mph76%30.24 "Hg12 mi
5:00 AM34 °FPassing clouds.7 mph76%30.25 "Hg12 mi
4:00 AM34 °FClear.7 mph74%30.27 "Hg12 mi
3:00 AM34 °FClear.6 mph73%30.28 "Hg12 mi
2:00 AM35 °FPassing clouds.7 mph67%30.29 "Hg12 mi
1:00 AM36 °FPassing clouds.7 mph64%30.29 "Hg12 mi
12:00 AM37 °FPassing clouds.7 mph66%30.30 "Hg12 mi
11:00 PM
Oct 24
37 °FPassing clouds.7 mph68%30.30 "Hg12 mi
10:00 PM37 °FPassing clouds.6 mph69%30.30 "Hg12 mi
9:00 PM38 °FPassing clouds.6 mph69%30.30 "Hg12 mi
8:00 PM40 °FClear.6 mph70%30.29 "Hg12 mi
7:00 PM42 °FPassing clouds.6 mph70%30.29 "Hg12 mi
6:00 PMN/APassing clouds.20 mphN/AN/A16 mi
5:00 PM45 °FOvercast.5 mph70%30.29 "Hg12 mi
4:00 PM48 °FOvercast.5 mph67%30.29 "Hg12 mi
3:00 PM49 °FOvercast.7 mph63%30.30 "Hg12 mi
2:00 PM48 °FPartly sunny.8 mph64%30.31 "Hg12 mi
1:00 PM47 °FScattered clouds.7 mph68%30.33 "Hg12 mi
12:00 PM43 °FPartly sunny.6 mph78%30.34 "Hg9 mi
11:00 AM41 °FOvercast.6 mph78%30.34 "Hg11 mi
10:00 AM39 °FOvercast.7 mph81%30.34 "Hg9 mi
9:00 AM39 °FOvercast.7 mph85%30.34 "Hg9 mi
8:00 AM40 °FFog.6 mph87%30.33 "Hg5 mi
Weather by CustomWeather, © 2014

See weather overviewHow to use our weather pages